This demonstration page uses our WeatherBlox Daily Observations layout. Learn more.

Left ArrowRight Arrow

Hourly Observations for May 21, 2021

Temp ( °F °C ) Dew Point ( °F °C ) Humidity (%) Winds ( mph kmh ) Pressure ( in mb ) Visibility ( mi km ) Precip ( " mm )
12:56 am 00:56 Clear 62 16.7 59 15 90 90 SSE 20 31 29.91 1013 10 16 0.00 0.00
1:56 am 01:56 Mostly Cloudy 61 16.1 59 15 93 93 SSE 16 26 29.91 1013 10 16 0.00 0.00
2:13 am 02:13 Partly Cloudy 61 16 59 15 94 94 SSE 14 22 29.91 1013 10 16 0.00 0.00
2:26 am 02:26 Mostly Clear 61 16 59 15 94 94 SSE 16 26 29.91 1013 10 16 0.00 0.00
2:56 am 02:56 Mostly Clear 61 16.1 59 15 93 93 SSE 15 24 29.91 1013 10 16 0.00 0.00
3:17 am 03:17 Mostly Cloudy 61 16 59 15 94 94 SSE 15 24 29.92 1013 10 16 0.00 0.00
3:56 am 03:56 Cloudy 61 16.1 60 15.6 97 97 SSE 16 26 29.92 1013 10 16 0.00 0.00
4:56 am 04:56 Cloudy 62 16.7 60 15.6 93 93 SSE 16 26 29.93 1014 10 16 0.00 0.00
5:56 am 05:56 Cloudy 62 16.7 60 15.6 93 93 SSE 20 31 29.92 1013 10 16 0.00 0.00
6:56 am 06:56 Cloudy 62 16.7 60 15.6 93 93 SSE 20 31 29.94 1014 10 16 0.00 0.00
7:05 am 07:05 Cloudy 63 17 61 16 94 94 SSE 18 30 29.93 1014 10 16 0.00 0.00
7:56 am 07:56 Cloudy 63 17.2 60 15.6 90 90 S 20 31 29.96 1015 10 16 0.00 0.00
8:56 am 08:56 Cloudy 64 17.8 61 16.1 90 90 S 22 35 29.98 1015 10 16 0.00 0.00
9:29 am 09:29 Cloudy 63 17 61 16 94 94 SSE 22 35 29.99 1016 10 16 0.00 0.00
9:56 am 09:56 Cloudy 63 17.2 61 16.1 93 93 SSE 20 31 30.02 1017 10 16 0.00 0.00
10:56 am 10:56 Cloudy 65 18.3 62 16.7 90 90 S 21 33 30.02 1017 10 16 0.00 0.00
11:56 am 11:56 Cloudy 65 18.3 62 16.7 90 90 SSE 21 33 30.03 1017 10 16 0.00 0.00
12:12 pm 12:12 Cloudy 66 19 63 17 88 88 S 21 33 29.99 1016 10 16 0.00 0.00
12:56 pm 12:56 Cloudy 67 19.4 62 16.7 84 84 S 21 33 30.03 1017 10 16 0.00 0.00
1:34 pm 13:34 Cloudy 70 21 63 17 78 78 S 29 46 29.97 1015 10 16 0.00 0.00
1:56 pm 13:56 Cloudy 70 21.1 63 17.2 79 79 S 24 39 30.02 1017 10 16 0.00 0.00
2:56 pm 14:56 Cloudy 74 23.3 63 17.2 69 69 SSE 30 48 30.00 1016 10 16 0.00 0.00
3:29 pm 15:29 Partly Cloudy 75 24 64 18 69 69 SSE 30 48 29.94 1014 10 16 0.00 0.00
3:56 pm 15:56 Mostly Sunny 76 24.4 64 17.8 67 67 S 30 48 29.99 1016 10 16 0.00 0.00
4:56 pm 16:56 Mostly Sunny 78 25.6 63 17.2 60 60 S 30 48 29.98 1015 10 16 0.00 0.00
5:56 pm 17:56 Partly Cloudy 78 25.6 64 17.8 62 62 SSE 29 46 29.99 1016 10 16 0.00 0.00
6:56 pm 18:56 Mostly Sunny 77 25 63 17.2 62 62 SSE 26 43 29.99 1016 10 16 0.00 0.00
7:56 pm 19:56 Sunny 75 23.9 62 16.7 64 64 S 28 44 29.99 1016 10 16 0.00 0.00
8:56 pm 20:56 Clear 73 22.8 62 16.7 69 69 SSE 21 33 30.01 1016 10 16 0.00 0.00
9:56 pm 21:56 Clear 71 21.7 61 16.1 71 71 SSE 18 30 30.02 1017 10 16 0.00 0.00
10:56 pm 22:56 Clear 69 20.6 61 16.1 76 76 S 20 31 30.06 1018 10 16 0.00 0.00
11:56 pm 23:56 Clear 68 20 63 17.2 84 84 S 17 28 30.07 1018 10 16 0.00 0.00

Powered by AerisWeather